Location: Forest Heath District
(52.3333°N, 0.5667°E)
Time: 06:26:39
(UTC+00:00)

Daily predictions for brighter satellites

Satellite Brightness Start Highest point End
(mag) Time Altitude Azimuth Time Altitude Azimuth Time Altitude Azimuth
Terra 1.9 21:03:53 10° SSE 21:08:37 81° WSW 21:13:22 10° NNW
Cosmos 2360 Rocket 2.3 21:03:59 10° NNW 21:09:41 81° WSW 21:15:21 10° SSE
Cosmos 1315 Rocket 4.4 21:06:58 10° SE 21:09:56 20° E 21:12:55 10° NE
ARIANE 5 R/B 4.4 21:09:10 10° ESE 21:12:20 20° ENE 21:15:31 10° NNE
In-Cosmos 22 4.4 21:07:46 10° SSW 21:13:22 78° WNW 21:18:52 10° N
ERS-1 Rocket 3.4 21:10:41 10° S 21:15:40 63° WSW 21:20:40 10° NNW
Cosmos 841 Rocket 4.4 21:11:27 10° NW 21:16:28 46° WSW 21:21:27 10° S
Cosmos 1455 3.4 21:14:33 10° NNE 21:17:34 26° ENE 21:20:33 10° SE
S3M 4.5 21:12:32 10° NNW 21:18:51 65° W 21:25:04 10° S
SL-27 R/B 2.1 21:17:42 10° S 21:20:23 47° ESE 21:23:06 10° NE
SL-16 R/B 3.4 21:17:37 10° NW 21:22:48 37° WSW 21:27:56 10° S
OPS 8737 4.0 21:20:55 10° NW 21:23:52 79° SW 21:26:55 10° SE
BREEZE-M DEB (TANK) 3.9 21:21:47 10° SW 21:25:52 57° SSE 21:41:03 10° ENE
USA 245 4.5 21:25:17 10° S 21:28:55 45° W 21:33:28 10° NNW
Cosmos 2333 Rocket 2.5 21:23:31 10° NW 21:29:13 66° WSW 21:34:55 10° SSE
Cosmos 2082 Rocket 4.2 21:24:30 10° WSW 21:29:38 33° NW 21:34:48 10° NNE
Cosmos 807 4.2 21:26:52 10° S 21:29:58 59° E 21:32:52 10° NNE
Aureole 3 3.9 21:26:20 10° S 21:30:22 54° E 21:35:27 10° NNE
Cosmos 2266 Rocket 4.4 21:24:14 10° SSW 21:30:35 71° WNW 21:37:02 10° N
Cosmos 1346 Rocket 3.0 21:27:49 10° NNW 21:31:40 64° W 21:35:28 10° S
Meteor 1-23 Rocket 4.4 21:26:03 10° SSW 21:31:44 82° WNW 21:37:32 10° NNE
Spot 2 Rocket 3.9 21:26:51 10° S 21:31:52 61° W 21:36:55 10° NNW
SL-14 R/B 3.2 21:28:31 10° SSW 21:32:19 85° WNW 21:36:08 10° N
Cosmos 2228 Rocket 3.2 21:32:46 10° SSW 21:37:20 85° W 21:41:57 10° N
Cosmos 1655 Rocket 4.2 21:34:58 10° SSW 21:41:22 82° W 21:47:49 10° N
ATLAS 2AS CENTAUR R/B 3.1 21:35:01 10° NW 21:41:40 54° SW 21:47:58 10° SSE
COSMOS 2455 4.4 21:38:31 10° SE 21:42:14 17° ESE 21:46:00 10° ENE
Landsat 5 3.6 21:38:43 10° NNE 21:42:41 55° ESE 21:46:46 10° S
Cosmos 1833 4.2 21:39:12 10° SSW 21:44:45 65° ESE 21:50:19 10° NE
Cosmos 2237 Rocket 3.6 21:40:35 10° NNW 21:45:38 32° NE 21:50:40 10° ESE
Orbus 7S? 4.3 21:42:55 10° W 21:46:51 42° NNW 21:49:30 10° ENE
Meteor 1-4 Rocket 2.1 21:44:37 10° S 21:47:33 58° E 21:50:32 10° NNE
Cosmos 1242 Rocket 3.4 21:47:48 14° SE 21:49:22 21° E 21:51:33 10° NE
USA 281 3.6 21:43:53 10° SE 21:50:19 60° NE 21:56:48 10° NNW
Cosmos 2322 3.9 21:45:21 10° NNW 21:51:04 73° ENE 21:56:21 12° SE
Meteor 1-16 Rocket 4.4 21:45:24 10° NNW 21:51:22 82° WSW 21:57:16 10° S
Okean 3 3.4 21:49:02 10° S 21:53:11 87° E 21:57:24 10° NNE
Kosmos-1783 4.3 21:50:08 10° NW 21:53:32 73° SW 22:00:04 11° SE
NOSS 0 Rocket 4.5 21:48:48 10° NNW 21:54:56 54° NE 22:01:03 10° SE
Cosmos 839 Rocket 4.4 21:48:00 10° NW 21:54:58 64° WSW 22:00:35 12° SSE
Spot 1 4.2 21:50:51 10° NNE 21:55:23 77° ESE 22:00:11 10° SSW
Ariane Rocket 4.0 21:52:03 10° SSW 21:56:51 41° W 22:01:40 10° NNW
Cosmos 1300 4.3 21:54:12 10° NNW 21:57:17 28° W 22:00:21 10° SSW
ALOS 2 4.4 21:58:35 10° ESE 22:01:57 22° ENE 22:05:19 10° N
H-2A R/B 3.8 21:58:24 10° SE 22:02:06 31° ENE 22:05:50 10° N
MetOp-A 4.3 21:58:04 11° S 22:03:10 70° WSW 22:08:25 10° NNW
Cosmos 1703 Rocket 4.0 21:59:28 13° SSE 22:03:17 48° E 22:07:35 10° NNE
Cosmos 1862 Rocket 4.0 21:59:44 10° SSW 22:04:06 63° WNW 22:08:32 10° N
Cosmos 2322 Rocket 3.7 21:59:28 10° NW 22:04:16 29° WSW 22:09:02 10° SSW
SL-4 R/B 1.9 22:03:48 10° W 22:07:41 67° SSW 22:11:49 10° ESE
Cosmos 2297 Rocket 3.8 22:11:53 12° SE 22:14:57 19° E 22:18:45 10° ENE
SJ 16-02 1.5 22:12:29 10° SSW 22:16:48 73° WNW 22:21:09 10° NNE
SeaSat 1 4.4 22:15:47 10° SSW 22:19:22 20° WSW 22:22:58 10° WNW
SL-08 R/B 4.4 22:13:35 10° S 22:19:38 79° E 22:25:45 10° NNE
Cosmos 158 Rocket 4.1 22:16:48 10° NNW 22:22:10 81° ENE 22:26:23 16° SSE
Cosmos 968 Rocket 4.1 22:17:59 10° SW 22:23:05 59° WNW 22:28:15 10° NNE
BREEZE-M DEB (TANK) 3.3 22:20:59 10° WSW 22:23:46 61° S 22:31:01 10° E
Cosmos 1570 Rocket 4.2 22:20:42 10° NNW 22:26:03 73° WSW 22:30:19 16° SSE
Cosmos 1932 4.4 22:19:52 10° SW 22:26:13 82° SE 22:32:31 10° NE
BREEZE-M DEB (TANK) 4.2 22:25:26 10° WSW 22:27:05 16° SSW 22:27:27 15° S
MINOTAUR 4 R/B 4.4 22:24:55 10° NNE 22:27:37 33° E 22:28:58 21° SSE
Cosmos 2219 Rocket 3.0 22:22:24 10° NW 22:27:44 43° WSW 22:32:21 13° S
Cosmos 1408 3.2 22:27:18 20° SE 22:28:42 29° E 22:31:22 10° NNE
ATLAS CENTAUR R/B 2.4 22:25:24 10° WSW 22:28:47 42° NW 22:32:18 10° NE
EXPRESS MD2 2.1 22:27:48 10° W 22:30:01 43° S 22:30:57 25° SE
CZ-4C R/B 3.0 22:28:53 17° SSE 22:31:19 26° ESE 22:35:47 10° ENE
COSMOS 2428 2.8 22:28:22 10° NW 22:34:04 73° WSW 22:38:32 17° SSE
CZ-2C R/B 3.6 22:33:28 10° NNE 22:37:54 73° ESE 22:41:28 16° S
BREEZE-M DEB (TANK) 3.8 22:22:45 10° W 22:38:23 72° S 22:42:26 10° E
CENTAUR R/B 4.2 22:37:02 10° SE 22:39:29 13° ESE 22:42:12 10° ENE
Cosmos 1953 3.4 22:36:01 10° NNW 22:39:34 36° W 22:42:38 13° SSW
USA 234 3.3 22:34:33 10° ENE 22:41:08 90° NE 22:47:42 10° WSW
Okean 2 4.1 22:38:29 10° SSW 22:42:22 49° WNW 22:46:18 10° N
Okean 1-7 3.8 22:38:48 10° SSW 22:43:00 50° WNW 22:47:14 10° N
Cosmos 405 Rocket 3.9 22:40:04 10° N 22:43:29 32° ENE 22:46:03 15° SE
BlueWalker 3 2.3 22:40:19 10° SW 22:43:50 39° SSE 22:47:21 10° E
Cosmos 1315 Rocket 3.8 22:41:58 10° SW 22:45:47 44° WNW 22:49:40 10° N
Terra 4.3 22:44:56 10° WSW 22:46:59 13° W 22:49:02 10° WNW
ARIANE 5 R/B 2.8 22:45:12 18° S 22:48:20 62° WSW 22:52:40 10° NNW
Cosmos 773 Rocket 4.1 22:43:39 10° NNW 22:48:49 75° ENE 22:52:47 17° SSE
Cosmos 1455 3.6 22:48:57 10° NNW 22:51:57 27° W 22:54:36 12° SSW
Cosmos 2360 Rocket 4.3 22:49:26 10° WNW 22:52:48 16° W 22:56:09 10° SW
Cosmos 371 Rocket 3.7 22:53:41 19° S 22:56:49 47° ESE 23:01:27 10° NE
PSLV R/B 3.8 22:54:26 10° NNE 22:58:28 86° ESE 23:01:18 19° SSW
Cosmos 1782 Rocket 4.0 22:55:15 10° NNW 22:59:28 54° W 23:02:30 18° SSW
GP-B 3.7 22:55:40 10° N 22:59:58 52° W 23:03:32 14° SSW
Cosmos 2208 Rocket 4.5 22:56:58 10° NNW 23:02:00 50° WSW 23:05:33 18° S
Cosmos 1745 Rocket 4.1 22:59:46 14° SSW 23:05:22 81° W 23:11:48 10° N
Cosmos 1892 4.3 23:05:53 15° ESE 23:07:27 20° E 23:10:06 10° NE
GENESIS II 4.2 23:03:57 10° SW 23:07:35 73° NW 23:11:15 10° NE
H-2A R/B 3.8 23:05:43 10° NE 23:08:52 20° E 23:10:59 14° SE
Nadezhda 1 Rocket 4.5 23:03:55 10° NNW 23:10:02 54° W 23:15:01 15° SSW
Cosmos 1503 Rocket 4.4 23:07:09 20° S 23:10:38 48° ESE 23:15:43 10° NE
Cosmos 2333 Rocket 4.5 23:10:01 10° WNW 23:12:24 13° W 23:14:48 10° WSW
NOSS 8 (H) 4.4 23:11:36 19° SSW 23:13:56 54° SE 23:16:52 10° NE
Cosmos 1703 3.1 23:12:38 24° S 23:14:41 69° E 23:18:22 10° NNE
Cosmos 1300 Rocket 4.2 23:10:47 10° NNW 23:14:54 45° W 23:17:47 18° SSW
Cosmos 1242 Rocket 4.2 23:19:14 10° WSW 23:21:19 19° WNW 23:23:25 10° NNW
Cosmos 2181 Rocket 4.1 23:16:06 10° N 23:22:20 74° ENE 23:26:52 19° SSE
SL-16 R/B 3.1 23:18:36 10° NNW 23:24:07 47° NE 23:29:37 10° SE
NOSS 8 (A) 4.3 23:21:21 10° NW 23:24:15 74° NE 23:26:36 18° SE
NOSS 8 (F) 4.3 23:22:56 10° SW 23:26:40 84° NW 23:29:42 10° NE
COSMOS 2455 2.8 23:21:35 12° SSW 23:27:14 77° SE 23:33:17 10° NE
Cosmos 2151 Rocket 3.7 23:23:51 10° N 23:28:16 70° ENE 23:31:01 22° SSE
Cosmos 1825 3.2 23:26:52 21° SE 23:28:21 29° E 23:31:23 10° NNE
Spot 4 4.3 23:26:57 20° S 23:30:05 52° W 23:34:49 10° NNW
Cosmos 2237 Rocket 2.3 23:24:31 10° NW 23:30:09 67° WSW 23:34:02 20° SSE
BREEZE-M DEB (TANK) 3.7 23:29:09 25° SSW 23:30:18 36° SSE 23:35:09 10° E
Cosmos 2098 Rocket 4.1 23:27:00 10° NNW 23:33:39 80° W 23:38:18 20° S
Okean 2 Rocket 3.2 23:30:03 10° N 23:34:32 74° ENE 23:37:23 22° SSE
USA 281 4.1 23:30:32 16° SSW 23:35:08 37° WSW 23:41:11 10° NW
H-2A R/B 3.5 23:34:22 19° SSW 23:36:57 36° W 23:40:55 10° NNW
Cosmos 1486 Rocket 4.1 23:32:33 14° SSW 23:37:02 76° WNW 23:42:16 10° NNE
Cosmos 1674 Rocket 3.9 23:35:17 23° SSE 23:37:47 51° E 23:42:00 10° NNE
Cosmos 1378 Rocket 3.7 23:35:17 23° S 23:37:49 61° E 23:42:11 10° NNE
ALOS 2 2.9 23:35:18 22° S 23:37:56 57° W 23:42:18 10° NNW
Cosmos 2227 Rocket 2.8 23:35:09 20° SSE 23:38:30 40° ESE 23:43:47 10° NE
Cosmos 304 Rocket 3.7 23:38:29 18° SSW 23:41:59 88° WNW 23:46:47 10° NNE
Cosmos 1980 4.1 23:38:01 10° NW 23:43:31 51° WSW 23:47:07 21° S
SL-4 R/B 3.0 23:42:39 10° W 23:46:06 27° SSW 23:47:04 24° S
Meteor 1-24 Rocket 3.8 23:42:33 18° SSW 23:46:53 80° WNW 23:52:30 10° NNE
SOZ 4.3 23:44:54 10° W 23:47:26 73° S 23:50:25 10° ESE
Cosmos 332 Rocket 4.1 23:48:04 23° S 23:50:59 55° ESE 23:55:47 10° NNE
Cosmos 1354 Rocket 4.0 23:49:34 20° SSW 23:53:18 78° ESE 23:58:37 10° NNE
SJ 16-02 4.1 23:53:38 10° WNW 23:55:59 14° NW 23:58:19 10° N
